Theta_e
318 321 322 323 323 321 318 319 319 315 313 312 311 311 311 312 312 313 316 312 308 312 314 313 313 313 313 313 310 308 309 309 311 315 317 318 319 320 320 318 317 317 316 315 316 317 317 317 317 317 318 319 320 322 323 324 324 324 324 324 323 323 324 324 324 324 325 325 326 327 327 328 328 326 324 324 325 326 327 326 326 325 325 324 323 324
319 323 323 322 323 321 318 317 316 315 314 311 310 310 311 311 311 312 314 313 309 311 315 314 312 313 312 312 309 307 308 309 310 311 313 315 316 318 318 317 316 316 315 315 316 316 316 316 316 316 316 317 318 319 321 322 322 323 323 323 322 323 324 324 324 324 325 324 325 325 325 327 327 325 322 322 323 325 326 326 325 325 325 325 325 326
320 323 323 320 319 318 315 314 314 314 312 311 310 310 312 312 312 312 312 313 311 311 316 315 312 312 312 312 309 306 308 310 311 311 313 314 315 316 317 316 316 316 315 315 315 315 315 315 315 315 315 315 316 317 319 320 320 321 322 321 321 322 322 324 325 325 324 324 325 326 326 326 326 325 323 322 322 324 325 325 325 325 325 326 326 326
321 323 321 317 316 316 314 312 312 312 311 312 310 309 312 312 312 314 313 313 312 311 313 314 314 314 313 313 311 308 308 310 311 311 312 313 314 315 316 315 315 315 315 315 314 314 314 314 314 313 314 314 315 316 317 318 319 320 320 320 319 320 321 323 324 325 325 326 327 328 328 327 327 326 326 325 323 323 325 325 326 326 325 325 324 324
320 319 316 315 317 317 314 313 313 314 314 313 310 310 311 311 312 313 313 312 312 311 311 313 315 315 314 315 314 311 309 308 309 310 311 312 313 313 313 314 314 314 314 314 314 314 313 313 313 313 313 313 314 314 315 316 317 318 318 319 319 319 320 322 323 325 326 328 328 329 329 329 328 327 327 326 324 322 322 323 325 325 323 324 324 323
318 314 314 316 317 317 315 314 313 314 315 313 311 311 309 310 312 313 314 312 313 315 313 313 315 318 322 321 316 313 311 310 309 307 309 312 312 312 313 313 314 314 314 314 313 313 313 313 313 313 313 313 313 313 314 314 315 316 317 318 319 319 320 321 322 325 327 328 328 328 329 328 326 325 325 324 323 321 320 320 322 321 322 327 329 324
316 313 314 316 316 316 316 315 313 313 313 312 312 311 309 310 312 313 315 314 317 319 313 311 315 320 323 322 319 315 313 313 311 307 307 310 312 312 313 314 314 314 313 313 313 313 313 313 313 313 312 313 313 313 313 314 314 315 316 317 319 319 319 320 322 325 327 327 328 328 327 327 326 324 323 322 322 322 320 320 321 320 321 326 327 324
314 313 315 316 316 316 316 316 314 312 312 313 313 313 311 309 311 314 315 317 319 318 313 311 315 318 317 317 318 313 312 314 312 310 308 308 311 313 314 314 314 314 314 313 314 313 313 313 313 313 313 313 313 313 314 314 314 314 315 316 317 318 319 320 322 324 326 326 327 327 327 328 327 326 325 325 325 324 322 322 321 321 321 320 320 320
312 314 316 316 316 316 316 316 313 311 312 312 313 314 311 310 313 314 315 316 316 315 316 314 313 316 318 320 318 311 313 315 314 314 311 308 311 314 314 315 315 314 314 314 314 314 314 313 313 313 313 313 313 313 313 313 313 313 314 315 316 317 318 319 321 323 324 325 326 327 328 328 327 327 327 328 327 325 324 324 322 322 321 320 322 323
312 313 314 315 316 316 316 316 312 311 312 310 312 316 317 318 317 315 316 316 313 313 317 318 314 314 319 324 320 312 313 315 315 316 311 307 311 314 314 315 315 315 314 314 314 315 315 313 313 313 313 314 313 313 313 313 313 314 314 315 315 316 317 318 320 321 323 324 326 327 328 328 328 328 329 328 328 327 325 324 323 322 320 319 322 324
312 312 312 313 314 314 314 314 310 310 310 308 312 316 319 322 319 318 321 317 313 315 316 317 315 313 317 321 319 315 316 316 315 316 312 308 310 313 314 314 315 315 315 314 315 314 315 314 313 313 313 313 313 314 314 313 313 313 314 315 315 315 316 318 319 321 322 324 325 327 327 328 328 328 329 328 329 327 324 324 323 321 320 319 320 321
310 312 312 311 311 311 312 312 310 310 309 309 315 316 316 320 318 319 322 314 313 317 314 313 313 311 314 318 317 315 317 317 314 316 317 312 310 312 312 313 313 314 313 314 315 314 315 315 313 313 313 313 313 314 314 314 313 313 314 315 315 315 316 317 318 320 322 323 325 327 327 328 328 328 328 328 328 327 324 324 323 320 321 323 321 319
313 314 312 311 311 311 312 313 313 313 312 312 316 315 314 317 315 317 318 314 316 316 310 310 311 311 313 315 316 316 315 314 310 310 314 311 310 312 312 312 312 313 313 313 314 314 315 315 314 313 313 314 314 314 314 314 314 314 314 315 315 315 316 317 318 319 321 323 324 326 327 327 328 328 328 327 327 326 325 324 323 321 321 322 320 318
315 314 312 312 312 311 312 313 314 315 315 314 312 313 314 316 316 316 316 315 318 316 310 309 311 314 316 315 317 317 314 312 307 307 310 309 310 312 312 312 312 312 313 313 313 314 314 315 314 314 314 314 313 314 314 314 314 314 314 315 315 315 316 316 317 319 320 321 323 324 326 327 327 327 327 326 326 326 325 324 322 322 321 320 319 318
317 316 314 313 313 312 311 313 315 317 315 312 312 314 314 315 317 318 317 318 320 318 312 310 313 319 321 318 315 311 308 308 308 309 310 309 310 311 311 312 313 313 313 312 312 313 314 315 314 314 314 314 314 314 314 314 314 315 314 314 314 315 316 316 317 318 319 320 321 323 325 326 327 327 326 325 326 325 324 324 323 322 321 320 319 318
317 317 313 311 311 311 311 312 313 315 314 313 314 314 313 315 319 316 316 318 319 319 315 311 316 321 319 315 312 307 306 308 307 308 309 309 311 311 312 313 312 313 313 312 312 313 314 314 314 314 313 314 314 314 314 314 314 315 314 314 315 315 316 317 318 318 319 320 321 323 325 325 326 326 325 325 325 325 324 323 323 322 321 321 319 318
317 316 311 310 310 310 311 312 311 313 315 313 312 313 312 315 318 315 313 313 313 316 316 313 315 319 316 314 316 315 313 311 309 308 307 309 311 311 312 313 313 313 313 312 313 312 313 313 313 314 314 314 315 314 314 314 314 315 315 315 316 316 317 318 319 319 320 320 321 323 324 325 324 323 324 325 324 323 324 324 323 322 322 321 319 316
317 315 310 310 312 309 309 311 310 310 313 314 314 313 311 312 315 315 315 316 314 314 318 316 314 316 317 317 319 317 314 315 315 312 308 308 310 311 313 313 313 313 313 313 312 312 313 313 313 314 314 315 315 315 315 315 315 315 315 316 316 316 317 317 317 317 317 317 318 320 323 324 324 323 323 324 322 322 323 324 323 322 322 320 318 314
317 317 311 311 313 310 308 312 312 310 309 312 314 312 312 314 315 314 314 317 315 313 319 319 312 313 316 319 320 314 314 318 316 315 313 309 309 310 313 313 313 313 313 313 313 312 313 313 313 314 314 314 314 314 314 314 314 314 314 315 315 315 315 315 314 314 313 313 314 316 321 323 324 324 323 323 323 322 323 323 322 321 320 319 315 312
318 321 314 311 313 312 310 312 314 312 309 309 310 309 312 314 314 315 315 316 316 315 319 318 313 316 317 318 321 316 316 319 315 316 316 310 308 310 312 313 313 313 313 313 313 313 313 313 313 314 314 314 314 313 313 313 313 313 313 313 313 313 313 313 313 313 312 312 312 314 319 322 324 325 324 324 324 322 321 322 321 320 319 316 312 311
315 319 316 312 312 312 312 312 314 314 311 310 311 311 311 310 313 316 314 315 317 318 319 316 315 324 323 316 317 316 317 319 315 316 313 307 308 311 311 313 313 313 313 313 313 313 313 314 313 314 314 313 313 313 313 312 312 312 312 312 312 311 312 312 312 312 312 312 311 313 318 322 323 323 323 323 324 322 320 320 320 318 317 313 311 311
314 316 315 313 312 312 313 313 313 314 313 312 313 312 312 311 313 316 314 314 315 314 318 316 315 325 325 314 312 314 316 315 310 309 308 306 308 310 311 311 313 313 313 313 314 313 314 314 314 314 313 313 313 312 313 313 312 312 312 312 312 311 311 311 311 311 310 312 314 316 318 320 321 321 322 322 322 322 320 319 319 317 314 311 311 311
314 317 315 313 314 314 313 310 308 311 315 315 313 313 314 312 312 314 314 316 313 311 314 314 312 319 323 316 311 309 308 306 303 303 304 306 309 310 310 311 311 313 313 313 313 314 314 314 314 313 313 313 313 313 313 313 312 312 312 312 311 310 310 310 310 311 312 314 318 319 319 320 321 321 321 321 321 320 319 319 318 315 311 311 311 308
313 316 315 314 314 314 314 312 308 309 314 316 314 314 314 313 314 314 315 317 316 314 314 312 312 320 327 320 307 300 300 302 303 305 305 307 310 311 310 310 310 311 313 313 313 314 314 314 313 313 313 313 313 313 313 312 312 312 311 311 310 309 309 309 311 315 316 317 318 318 318 320 321 320 320 319 319 319 318 317 315 312 311 311 309 305
314 315 314 315 315 315 316 316 313 312 312 314 315 314 313 315 315 312 311 312 313 316 317 313 314 321 326 321 308 302 305 307 304 305 307 307 309 310 310 310 310 310 311 313 313 313 313 313 313 312 312 313 313 313 313 312 312 311 311 310 309 309 309 310 314 317 319 319 318 318 317 318 318 318 318 317 318 318 317 314 311 311 311 309 306 303
317 317 314 315 316 316 317 316 315 315 313 314 316 313 311 313 312 312 313 311 311 316 316 313 316 321 322 318 313 312 316 314 308 306 307 307 308 310 310 310 310 310 310 312 313 313 313 313 313 312 312 313 313 313 313 312 312 311 311 310 309 309 309 310 313 315 316 316 317 317 317 317 317 317 317 317 317 316 313 311 311 311 309 306 303 302
320 318 313 315 316 315 317 317 317 317 314 314 316 315 313 312 312 315 317 313 314 316 314 314 317 317 317 317 315 316 318 319 314 308 307 309 309 310 310 310 311 311 310 311 312 313 313 312 312 312 312 313 313 313 313 312 312 312 311 310 309 309 308 309 310 311 312 312 313 314 314 315 315 316 316 316 315 312 311 311 311 309 307 304 301 301
319 316 314 315 315 316 319 318 317 316 315 314 314 315 316 315 313 315 315 313 316 315 313 317 317 313 314 319 321 320 319 319 314 306 306 309 309 310 311 311 311 311 311 311 311 312 312 312 312 312 312 313 313 313 313 312 312 312 312 312 311 310 309 309 309 310 311 312 312 312 313 314 315 315 315 314 312 311 311 310 309 307 304 302 300 300
315 314 314 315 315 316 318 318 316 316 314 314 315 314 315 315 314 315 314 313 315 314 311 317 320 316 314 317 320 318 313 311 309 307 308 309 309 310 311 311 311 312 311 312 312 312 312 312 312 312 313 313 313 313 313 313 313 313 313 313 312 312 311 310 311 312 312 313 313 312 313 313 314 313 312 311 311 310 310 309 308 305 302 301 300 299
312 314 314 313 313 314 315 315 316 317 316 315 316 314 314 315 314 314 314 312 313 314 312 314 317 315 313 315 317 313 307 305 306 308 309 309 309 310 310 311 311 311 311 312 312 312 312 312 312 312 313 313 313 314 313 313 313 313 313 313 313 313 313 312 313 313 313 313 313 313 313 313 312 311 311 311 310 310 310 308 306 303 301 300 300 299
311 314 313 312 313 312 312 312 313 315 317 316 316 315 314 314 314 313 313 313 313 313 312 312 314 313 311 311 310 308 307 307 306 307 309 309 309 310 310 311 311 311 311 312 311 312 312 312 312 312 313 313 313 314 313 313 313 313 313 313 312 313 313 313 313 312 312 312 312 312 312 311 311 311 311 311 310 310 309 306 304 301 301 300 299 299
312 313 310 311 314 312 310 312 312 312 314 314 315 316 314 314 314 314 313 313 313 313 313 313 313 312 311 309 307 308 309 306 305 307 309 310 310 311 311 312 312 312 312 312 312 312 311 311 312 312 312 313 313 314 314 313 313 313 313 313 312 312 312 312 312 312 312 312 311 311 311 311 311 311 311 310 310 309 307 304 302 300 300 299 299 298
315 314 312 313 314 311 310 313 314 313 312 313 314 313 313 313 314 314 314 314 313 313 313 313 312 313 314 313 311 311 310 306 306 308 310 310 311 311 312 312 312 312 312 312 312 312 312 312 312 311 312 312 312 313 313 313 313 313 313 312 312 312 312 312 312 311 312 311 311 311 311 311 311 311 311 310 309 308 305 302 301 300 299 299 298 297
315 315 315 315 315 313 311 313 315 314 313 314 314 314 313 313 313 314 313 313 313 312 313 313 312 313 314 314 312 312 311 310 309 309 310 311 311 312 311 311 312 312 311 312 312 312 312 312 311 312 311 311 312 312 313 313 313 313 312 312 312 312 311 312 311 311 312 311 311 311 311 311 311 310 310 310 308 306 303 301 300 299 298 298 297 297
314 315 316 316 316 314 311 312 314 314 313 314 316 316 313 311 312 313 313 312 312 312 312 312 312 313 311 310 311 311 310 310 309 309 310 311 311 311 312 311 312 312 312 312 312 312 313 312 312 312 311 311 312 311 312 312 312 312 312 312 312 312 311 311 311 311 311 311 311 311 311 311 311 310 310 309 307 305 302 300 299 298 298 297 297 296
313 314 315 315 315 313 311 312 314 315 315 315 315 313 311 311 312 312 312 312 311 311 312 311 311 311 308 307 308 309 308 308 309 309 310 311 311 311 312 312 312 312 312 312 312 312 312 312 312 312 312 312 311 311 312 312 312 312 312 312 312 311 311 311 311 311 311 311 311 311 311 310 310 310 309 308 307 304 301 299 298 298 297 297 296 296
311 313 314 313 313 314 314 313 315 316 316 315 314 313 311 311 312 312 312 312 311 310 310 310 310 310 308 307 308 308 307 308 309 310 310 311 312 311 312 312 312 312 312 312 312 312 312 312 312 312 312 312 311 311 311 311 311 311 311 312 312 312 311 311 311 311 311 311 311 311 311 310 310 310 309 308 306 303 300 298 297 297 297 297 296 295
310 312 313 313 313 316 317 314 314 316 314 313 315 315 310 308 311 312 312 313 313 310 309 309 310 310 309 308 308 306 307 309 310 310 310 310 311 312 312 312 312 312 312 312 312 312 312 312 312 312 312 312 311 311 311 311 311 311 311 311 311 311 311 311 311 311 311 311 311 310 310 310 310 309 308 307 305 302 300 298 297 297 296 296 295 295
310 311 313 314 314 315 315 314 314 314 313 314 318 317 310 307 309 310 311 314 314 310 308 308 309 309 308 308 307 307 309 311 311 310 310 311 312 312 311 312 312 312 312 312 312 312 312 312 312 311 312 312 311 311 311 311 311 311 311 311 311 311 311 311 311 311 311 311 310 310 310 310 309 309 308 307 304 301 299 297 297 296 296 295 294 294
311 311 312 314 315 314 313 314 314 313 313 317 319 314 309 308 310 312 314 315 312 309 308 309 308 308 308 307 306 307 310 311 311 310 311 312 312 311 311 311 311 311 311 311 311 311 311 312 311 312 312 311 311 311 311 311 311 311 311 311 311 311 311 311 311 311 310 310 310 310 310 309 309 308 307 305 303 300 298 297 296 296 295 295 294 294
312 312 313 314 314 313 313 314 314 314 318 320 315 307 307 309 312 314 316 315 311 308 308 309 309 308 308 307 306 307 309 310 310 310 311 312 311 311 311 311 311 311 311 311 311 311 311 311 311 311 311 311 311 310 310 311 310 310 311 311 311 311 310 311 310 310 310 310 310 310 309 309 308 308 306 304 301 299 297 296 296 295 295 294 294 294
312 313 314 314 313 313 314 313 313 315 317 317 310 304 306 312 314 314 314 312 311 310 310 310 310 309 308 308 308 309 310 310 310 310 311 311 311 310 311 311 311 311 311 311 311 311 311 311 311 311 311 311 310 310 310 310 310 310 310 310 310 310 310 310 309 309 309 309 309 309 308 308 308 307 305 302 299 297 296 296 295 295 294 294 294 294
311 312 313 312 313 315 314 312 314 315 312 310 308 306 309 314 316 314 311 310 311 311 311 311 310 310 310 309 309 310 310 310 310 310 310 310 310 310 310 310 311 311 311 311 311 310 311 310 310 310 310 310 310 310 310 310 310 310 310 310 310 310 309 309 309 309 308 308 308 308 308 307 307 306 304 301 298 296 296 295 295 294 294 294 294 294
312 312 313 312 312 314 314 313 314 313 309 308 310 311 311 312 312 311 311 310 310 311 311 311 311 311 311 310 310 310 310 310 310 310 310 310 310 310 310 310 311 311 310 310 310 310 310 310 310 310 310 309 309 309 309 309 309 309 309 309 309 309 309 309 308 308 308 308 307 307 307 307 306 305 303 300 297 295 295 294 294 294 293 293 293 293
311 310 312 314 313 312 313 313 310 308 306 307 310 310 310 310 309 310 312 311 311 311 310 310 311 310 310 310 310 310 310 310 310 310 310 310 310 310 310 310 310 310 310 310 310 309 309 309 309 309 309 309 309 309 309 309 309 309 309 309 308 308 308 308 308 308 308 307 307 307 306 306 305 305 302 298 296 295 294 294 294 294 293 294 293 293
308 305 308 315 316 312 310 309 306 305 305 306 308 310 310 310 310 310 311 311 311 311 311 310 310 310 310 310 310 310 310 310 310 310 310 310 310 310 310 310 310 310 310 309 309 309 309 309 309 309 309 309 309 309 309 309 309 309 309 309 308 308 308 308 307 307 307 307 306 306 306 305 305 304 301 297 295 294 294 294 294 294 294 293 293 293
306 305 309 316 316 312 311 311 309 307 307 307 307 309 309 309 310 310 310 310 310 311 311 311 310 310 310 310 310 310 310 310 310 310 310 310 310 309 309 309 309 309 309 309 309 309 309 309 309 309 309 309 309 309 309 309 309 309 308 308 308 308 307 307 307 307 306 306 306 305 305 305 304 303 301 297 295 294 293 293 293 293 293 293 293 292
308 307 311 316 314 312 312 309 305 305 305 306 307 308 308 309 309 309 310 310 310 310 310 310 310 310 310 310 310 310 310 310 310 310 310 309 309 309 309 309 309 308 309 308 308 309 309 309 309 309 309 309 309 309 309 309 309 308 308 308 308 307 307 307 307 306 306 306 305 305 305 304 304 303 300 297 295 294 294 293 293 293 292 292 292 292
307 308 312 313 313 312 310 304 301 304 307 306 306 308 309 309 309 309 309 309 309 309 310 310 310 310 310 310 310 310 310 310 310 310 310 309 308 308 308 308 308 308 308 308 308 308 308 309 309 309 309 309 308 308 308 308 308 308 307 307 307 307 307 306 306 306 306 305 305 305 304 304 303 302 300 297 295 294 293 293 293 292 292 291 291 291
306 311 312 311 312 313 311 306 305 310 312 309 307 309 310 310 309 308 308 308 308 308 309 309 309 309 309 309 309 309 309 309 309 309 309 308 308 308 308 308 308 308 308 308 308 308 308 308 308 308 308 308 307 307 307 307 307 307 307 306 306 306 306 306 306 306 305 305 305 304 303 303 302 301 299 296 294 293 293 293 292 292 291 291 290 290
307 311 311 310 312 312 309 307 307 310 311 309 309 310 310 309 309 308 307 308 308 308 308 308 309 309 308 308 308 308 308 308 308 308 308 307 307 307 307 307 307 308 308 308 308 308 308 308 308 308 308 307 307 307 307 307 307 307 306 306 306 305 305 305 305 305 305 304 304 304 303 302 302 300 298 296 294 293 292 292 292 291 290 290 290 290
Wind_Speed
10 5 4 5 6 8 8 7 6 5 4 1 2 3 4 4 5 5 4 5 1 4 6 7 8 10 12 11 8 5 6 12 17 20 22 24 25 28 31 32 32 33 30 26 27 28 28 28 28 28 29 30 31 32 32 33 32 30 29 28 27 25 23 22 22 21 21 22 22 22 22 23 21 20 20 20 19 18 18 17 17 17 16 15 13 12
8 5 5 6 7 9 9 8 8 5 1 3 4 5 6 4 6 6 4 5 2 3 4 3 6 10 12 11 8 5 5 11 19 22 24 26 26 27 30 32 33 31 29 28 29 28 28 29 29 29 29 30 31 32 33 33 32 31 30 30 29 26 25 24 23 22 21 21 21 21 21 21 20 20 19 19 19 19 18 18 18 17 16 15 14 14
4 3 5 8 9 10 9 10 9 7 3 3 4 4 6 3 4 6 3 4 3 2 3 2 4 9 11 11 7 8 11 15 22 23 26 29 27 28 31 33 33 32 31 31 29 27 28 29 28 30 30 31 31 31 32 32 32 32 32 31 30 29 27 25 23 22 22 20 19 19 19 18 19 19 17 17 18 19 19 19 19 18 16 16 17 17
3 3 7 12 13 12 9 10 11 6 3 3 3 4 6 3 2 3 2 2 2 1 0 1 3 7 8 7 6 13 20 20 21 22 24 27 29 32 33 32 33 33 34 32 29 28 29 29 29 31 31 31 31 32 33 33 33 33 33 32 31 30 28 26 24 23 22 20 20 19 19 19 20 20 18 17 17 18 19 19 19 19 18 18 19 19
1 3 11 15 12 12 10 10 11 7 4 5 6 6 7 5 4 3 3 3 2 2 1 2 4 6 6 7 7 10 14 16 19 19 20 25 29 32 31 31 33 34 35 33 30 29 29 30 31 30 30 31 31 32 33 33 33 33 33 32 31 30 28 26 25 23 23 23 22 22 22 22 22 22 22 21 19 18 18 18 19 19 17 14 16 17
1 4 13 13 9 12 11 9 10 9 6 5 6 8 9 8 6 3 4 3 1 3 2 1 3 7 4 5 9 7 4 9 14 14 20 26 28 29 31 34 35 34 34 33 31 29 29 29 29 29 31 31 32 32 32 31 31 32 32 32 31 30 28 26 25 24 25 25 25 24 24 24 24 24 23 22 20 18 17 16 17 17 13 12 16 14
2 6 11 11 11 12 10 8 9 9 6 3 5 7 10 9 6 3 2 1 3 4 3 1 5 7 6 5 8 5 4 8 9 8 17 26 27 28 32 35 35 34 34 32 31 29 28 28 28 29 30 31 33 32 30 30 30 30 31 31 31 30 29 27 26 26 26 26 26 26 25 25 25 24 23 20 17 17 17 17 16 16 14 16 19 15
4 7 7 8 11 9 8 8 8 10 7 3 3 4 7 8 7 6 3 4 4 3 4 1 3 4 6 7 5 1 3 8 8 8 14 22 27 31 35 37 36 36 34 32 31 29 28 27 27 27 27 28 30 30 30 30 30 30 30 30 30 30 29 28 28 28 28 28 28 27 27 26 25 23 22 19 17 16 17 18 18 17 16 16 16 14
5 9 8 9 9 6 7 8 11 13 7 3 1 3 3 3 3 3 3 4 3 2 4 3 3 3 7 6 3 2 3 8 9 9 12 20 29 34 38 40 38 38 37 34 31 30 29 27 26 26 24 24 26 27 29 30 30 30 29 30 30 30 30 29 29 29 29 29 29 28 28 27 26 23 22 20 19 19 18 19 19 18 17 14 12 14
2 11 14 12 7 5 5 6 12 14 7 3 4 5 5 4 3 2 2 2 1 2 8 7 5 5 6 5 3 1 3 7 8 7 10 19 28 34 38 41 41 42 41 38 35 31 29 28 26 25 25 24 24 24 27 29 30 30 30 31 31 31 30 30 30 30 30 30 30 30 29 28 27 25 24 23 22 22 21 21 21 20 19 16 15 17
1 9 14 7 3 4 6 5 5 7 5 4 4 4 5 4 4 3 1 2 0 6 8 6 7 6 6 5 4 4 5 7 8 7 9 15 23 29 33 37 40 41 42 40 37 33 30 28 28 28 28 27 25 24 25 27 29 30 31 31 31 31 31 31 31 31 30 31 30 30 30 29 28 26 25 24 24 24 23 22 23 21 19 16 16 18
4 7 6 2 5 8 8 5 2 3 3 4 3 3 3 2 2 3 3 2 4 8 4 3 2 6 7 5 3 6 6 6 8 8 9 13 20 24 25 26 30 33 36 37 37 35 32 30 30 30 29 28 28 26 25 25 27 29 30 31 32 31 32 31 31 31 31 31 30 30 29 28 28 27 26 26 25 24 23 24 24 21 18 17 18 17
3 3 3 2 8 10 8 5 3 3 3 3 3 4 3 1 1 1 2 1 5 6 3 3 1 4 8 6 6 8 8 8 10 12 14 15 19 20 17 17 19 23 28 32 35 37 35 34 33 31 29 28 29 28 27 26 26 28 29 30 31 31 31 32 32 32 31 31 30 29 28 28 27 27 27 26 26 25 24 25 24 21 20 21 20 16
1 2 4 4 5 12 12 7 5 5 6 6 5 5 5 3 4 5 4 2 4 5 3 1 1 3 5 4 9 11 11 14 14 16 19 19 20 20 16 15 16 18 22 26 31 35 36 35 33 31 30 29 29 29 29 29 28 28 29 30 30 31 31 31 31 31 31 31 30 29 28 28 27 27 27 26 26 25 24 24 23 22 21 20 18 14
5 2 7 8 6 12 13 8 6 6 7 8 5 4 4 3 5 6 4 3 4 3 3 2 2 4 2 3 8 11 14 15 14 17 19 21 23 22 20 18 17 18 19 22 28 32 33 33 32 32 31 30 30 30 31 32 31 31 31 31 31 31 31 32 32 32 31 31 30 30 29 29 28 28 27 26 26 26 25 24 23 22 21 20 17 13
6 2 4 5 9 15 11 6 8 8 6 6 4 4 6 5 3 1 3 4 3 1 2 2 3 4 3 6 7 6 10 13 16 18 19 23 25 21 22 23 19 18 18 21 26 29 30 30 30 31 30 29 29 30 32 32 33 33 33 33 33 33 33 33 33 33 32 31 31 30 31 30 29 29 28 27 28 27 24 23 22 20 20 19 17 14
5 1 1 4 8 12 12 11 8 6 6 3 4 6 5 3 4 1 2 1 3 2 3 2 4 5 3 7 8 5 5 8 11 14 17 24 24 19 23 25 22 19 17 19 23 26 27 27 28 28 28 28 28 29 30 31 32 33 34 34 35 35 34 34 34 34 33 32 32 32 32 31 31 30 29 28 27 25 23 22 21 20 20 20 16 15
5 2 1 5 6 6 12 17 9 4 6 6 6 7 2 2 2 1 2 2 1 4 4 1 4 5 2 5 6 4 5 7 8 9 13 19 19 20 27 27 24 21 16 16 20 23 24 25 26 26 26 27 28 29 30 30 32 33 34 35 35 35 36 35 35 34 33 33 32 32 32 32 31 29 28 27 25 24 24 24 23 23 22 19 16 17
6 4 2 3 5 2 5 12 8 4 5 5 4 5 4 3 4 3 3 2 3 5 4 2 3 3 4 5 3 3 8 9 9 9 9 13 18 23 29 27 23 20 16 15 18 22 24 25 25 26 26 27 28 29 30 31 33 34 35 36 36 36 36 36 35 35 34 33 32 31 31 31 30 29 28 26 25 25 25 25 26 24 21 18 18 20
5 5 1 2 4 4 3 6 9 7 2 4 3 3 2 3 5 5 4 3 3 4 4 3 3 3 6 6 5 7 9 8 10 10 7 11 18 22 25 24 22 21 19 16 17 22 24 26 26 26 26 26 27 28 29 30 32 34 35 35 36 36 36 36 35 34 33 32 30 29 29 29 29 30 28 27 27 26 26 27 26 22 19 18 21 21
4 4 3 2 2 5 3 6 9 9 6 4 4 5 4 3 2 2 2 2 2 3 3 3 3 5 6 5 8 10 10 9 10 8 7 11 16 18 21 21 20 20 21 18 17 21 23 25 24 24 24 24 25 26 27 27 28 29 30 30 31 31 32 32 32 31 30 28 28 28 28 28 29 29 29 28 28 27 26 26 23 19 18 21 23 22
3 3 6 5 4 5 3 2 4 7 9 7 6 6 5 5 3 3 5 2 2 3 4 3 4 7 6 5 9 11 10 7 3 4 7 12 14 14 16 17 17 18 19 19 18 20 22 22 21 21 21 21 22 23 23 24 24 24 25 25 26 26 26 27 28 27 26 25 25 25 26 27 28 28 28 28 29 28 26 24 20 19 21 24 24 22
4 5 5 4 4 4 1 2 2 3 6 5 4 5 4 4 5 6 8 3 1 1 1 2 4 7 6 5 7 9 8 7 7 7 10 14 14 13 14 14 15 15 16 17 18 19 20 19 19 19 19 20 20 21 21 21 21 22 22 22 22 22 23 23 24 24 24 24 24 25 25 25 26 27 28 29 29 28 25 22 21 22 25 25 24 23
5 5 4 4 1 2 3 4 4 4 4 4 4 4 5 4 4 4 5 3 3 3 2 2 6 7 6 3 5 9 11 13 15 13 14 18 17 16 15 14 13 14 16 17 17 18 18 18 19 19 19 19 19 19 19 19 20 20 20 20 20 21 22 23 23 23 23 23 24 25 26 26 27 28 29 29 27 25 23 23 24 26 26 26 25 24
6 4 5 6 4 2 2 2 2 2 3 4 3 3 5 4 4 2 2 2 3 6 6 6 8 7 5 4 3 7 7 10 13 11 12 17 18 16 14 12 11 12 15 17 18 18 18 18 18 18 18 18 18 17 17 17 18 18 18 20 21 22 23 24 24 24 24 24 24 25 25 26 27 28 27 27 25 24 24 25 27 28 27 26 26 25
6 4 6 8 8 8 8 6 7 6 3 2 2 3 4 5 6 4 1 3 6 6 5 7 7 6 6 5 5 6 5 7 10 7 6 11 14 13 11 9 10 10 12 16 17 18 18 18 18 18 17 16 16 16 16 16 17 18 19 20 22 23 24 25 25 25 25 25 25 26 26 27 27 27 26 25 25 25 27 28 29 29 28 27 26 24
3 3 7 10 10 11 11 7 6 10 8 8 9 9 7 7 7 5 2 5 6 1 2 6 5 3 6 5 5 7 6 6 8 7 7 8 10 10 8 7 9 9 10 13 16 18 19 18 18 17 16 15 15 15 16 17 18 18 19 21 22 22 23 23 24 24 24 25 25 27 28 28 27 26 25 25 27 28 29 30 30 29 28 27 25 23
3 4 11 13 11 6 5 5 8 12 13 14 13 12 9 8 9 8 8 10 5 3 8 8 5 5 8 6 6 9 7 5 6 8 10 9 8 8 8 8 8 9 9 11 14 17 19 18 17 16 16 16 15 16 17 18 19 19 19 20 20 21 22 22 23 24 24 25 26 27 28 27 26 25 26 27 29 30 31 31 30 29 29 27 25 23
2 7 12 11 10 4 4 8 10 11 11 10 13 13 10 9 10 11 15 12 7 7 13 5 6 9 8 6 9 9 5 4 6 8 9 10 9 7 7 8 9 9 10 12 14 16 17 17 17 16 16 16 16 18 19 20 21 21 20 20 20 20 21 22 23 24 25 25 26 27 27 27 26 27 28 29 30 31 31 31 30 30 29 27 26 24
4 6 8 9 8 4 4 8 10 11 9 8 12 14 12 11 12 14 17 13 8 12 13 3 7 12 6 6 11 9 6 6 6 8 10 10 9 7 6 8 9 10 11 12 13 14 15 16 16 16 17 17 18 20 21 22 22 22 21 21 20 20 21 23 24 25 26 26 27 27 28 28 28 29 30 31 32 32 31 31 31 30 29 28 26 25
3 5 4 7 6 1 1 4 6 8 9 9 10 13 14 16 16 17 17 10 8 14 12 5 11 14 5 5 12 15 17 15 11 13 15 13 9 8 8 9 10 11 12 11 11 12 13 14 16 17 18 18 19 20 22 23 22 21 21 21 21 22 22 24 26 27 27 27 27 28 29 30 30 31 31 32 32 32 32 32 32 31 29 28 26 25
2 2 3 6 6 3 2 3 4 5 5 4 9 14 18 18 16 16 14 11 13 16 11 7 12 9 3 4 12 18 20 16 14 18 21 17 12 12 13 13 14 13 12 11 12 12 14 15 15 16 18 18 20 21 22 23 22 22 22 23 24 24 25 26 28 28 28 28 28 29 30 31 31 32 33 33 33 33 33 33 32 31 29 28 27 25
5 4 3 5 6 3 2 5 7 7 5 4 11 15 17 15 13 13 14 16 18 15 10 11 13 4 6 6 12 14 13 11 16 24 26 22 18 18 20 21 22 22 18 15 15 15 16 16 16 16 17 18 19 20 21 22 23 23 22 24 25 26 28 29 29 29 29 29 29 30 30 31 32 33 34 34 34 34 34 33 32 31 30 28 27 26
7 7 4 4 5 4 3 5 7 5 5 9 9 13 17 16 16 17 16 16 16 15 13 15 14 6 6 10 13 15 16 17 22 28 27 23 22 24 26 26 27 27 24 20 18 17 17 17 16 17 18 18 18 18 19 22 23 23 23 24 26 28 29 30 31 31 31 31 30 31 31 32 33 34 35 35 35 35 35 34 33 32 30 29 28 27
8 8 5 3 4 3 4 6 6 8 11 7 4 11 17 20 20 19 17 15 16 17 18 19 17 12 12 17 22 23 23 22 21 21 21 22 23 23 24 25 24 23 22 19 18 19 18 17 17 17 16 17 18 18 19 21 23 25 26 26 27 29 31 32 32 32 31 32 32 32 33 33 34 35 36 36 36 36 35 35 34 33 31 30 28 27
11 9 4 2 4 3 3 6 8 7 5 1 1 4 10 12 11 12 13 15 16 16 16 19 19 14 13 19 24 20 15 14 14 17 21 21 21 22 23 24 23 21 19 19 18 19 18 17 17 16 15 16 17 19 19 19 21 24 27 28 29 30 32 33 34 34 33 33 33 33 34 35 36 37 36 36 37 37 37 36 35 33 32 30 29 28
10 9 5 3 3 3 5 6 4 4 6 5 4 4 6 8 8 9 9 12 15 16 17 16 15 15 15 20 25 19 9 7 9 16 24 22 20 23 26 26 25 23 22 21 21 20 19 18 18 16 15 16 16 16 18 19 21 23 25 28 30 30 32 34 35 36 35 34 34 35 35 36 36 37 37 38 38 38 38 37 35 34 32 31 30 29
5 7 8 7 2 3 5 2 2 3 8 9 6 5 8 13 13 11 7 10 10 15 20 18 15 17 16 19 24 18 8 5 6 15 27 26 24 28 31 30 29 27 26 25 23 22 21 21 20 18 17 16 15 14 15 17 19 21 23 26 28 31 33 35 36 37 36 35 35 35 36 37 37 38 38 39 39 39 38 37 36 34 33 31 30 29
2 2 6 8 3 3 6 5 6 9 9 5 7 8 11 18 17 12 2 9 7 13 22 20 15 17 18 21 22 15 8 6 7 17 31 29 26 30 30 28 28 27 27 27 25 25 24 23 23 21 19 16 14 13 13 15 17 20 21 23 25 28 32 34 36 37 36 35 35 36 36 38 38 39 39 39 39 39 38 37 36 34 33 31 30 29
5 3 5 7 6 6 7 6 5 6 6 5 8 10 18 24 20 11 2 9 6 15 24 22 19 22 26 27 20 12 8 11 12 20 30 27 23 23 19 17 19 20 21 23 24 25 25 24 24 23 20 16 12 11 12 13 15 18 20 21 23 25 27 28 31 34 36 35 35 36 38 39 39 39 40 40 39 39 38 37 36 35 33 32 31 30
3 3 4 7 8 6 7 7 5 4 6 6 5 12 26 26 14 6 9 7 7 14 20 23 25 28 26 23 18 14 19 27 22 19 19 16 14 12 8 8 12 12 13 16 18 20 22 23 23 21 18 14 11 10 10 11 13 15 17 19 21 21 21 23 28 32 34 35 36 37 39 39 40 40 40 40 40 39 38 37 36 35 34 32 31 30
5 4 3 5 6 4 4 5 3 6 8 8 8 13 21 16 5 8 7 4 7 10 12 17 23 22 18 20 23 24 29 31 26 19 16 12 11 8 6 8 10 10 11 11 11 13 15 16 17 16 14 11 9 9 9 11 12 13 15 17 17 17 19 23 26 30 33 35 37 38 39 40 41 41 41 41 40 39 38 37 36 34 33 32 32 31
8 7 7 6 5 4 3 4 3 7 7 17 19 8 7 5 4 7 7 5 6 8 8 11 14 13 14 17 20 22 22 21 20 20 19 16 15 13 11 10 9 10 9 7 6 7 7 8 9 9 8 8 7 7 8 9 10 12 13 14 14 16 19 22 24 28 31 34 37 38 39 41 41 41 41 41 41 40 39 38 36 35 34 33 32 31
5 7 7 6 5 6 6 8 7 4 9 26 24 10 12 10 4 7 9 6 7 9 9 9 9 10 11 9 9 11 13 13 13 13 12 12 12 11 9 8 8 8 7 5 5 4 3 4 4 4 4 5 4 5 6 6 8 9 10 11 12 15 18 20 23 26 29 32 35 37 39 40 41 41 41 41 41 40 39 38 37 36 35 34 33 32
6 6 6 4 5 5 5 6 5 2 14 27 19 9 19 21 7 6 8 7 8 11 10 10 11 10 9 7 6 7 8 8 8 8 8 8 8 6 7 8 8 7 7 6 5 4 3 4 4 4 3 3 2 2 3 4 5 7 8 9 11 14 15 18 20 23 26 29 32 35 37 39 40 41 41 42 42 41 40 39 37 37 36 35 35 34
2 2 3 3 2 4 3 2 3 3 12 20 11 5 17 25 16 8 8 7 7 9 9 8 8 8 9 9 9 7 6 6 6 6 7 8 7 7 8 8 8 8 8 7 6 5 5 5 4 4 3 1 0 2 3 4 6 7 8 9 11 12 14 16 18 20 23 26 29 32 35 38 40 41 42 42 42 41 40 39 38 37 37 36 36 35
3 3 3 2 4 5 5 4 6 6 13 19 12 5 12 22 23 16 9 7 7 8 9 9 8 7 7 8 8 8 7 7 6 7 8 9 9 10 9 9 9 8 8 7 6 6 6 5 4 3 1 1 3 4 5 7 8 9 9 10 10 11 13 15 17 19 21 23 26 29 32 35 38 40 42 42 43 42 41 39 38 38 38 38 37 35
4 6 4 3 5 5 4 5 5 6 14 20 16 10 8 15 23 23 17 12 9 8 9 10 9 9 9 8 9 9 9 9 9 9 9 10 11 11 11 10 10 9 8 8 7 7 6 4 2 2 3 4 5 6 8 9 10 10 11 10 10 11 13 14 16 18 19 21 23 26 29 33 37 39 41 43 43 43 43 41 40 40 39 38 37 35
7 8 6 4 5 3 3 3 3 2 3 13 18 17 13 12 18 22 21 17 13 9 8 9 9 10 11 10 10 10 9 10 11 11 11 12 12 12 12 11 11 10 9 8 7 6 5 3 3 4 5 6 6 7 8 8 9 10 9 9 9 10 12 14 15 17 18 20 22 24 26 30 34 38 41 43 43 43 43 42 41 40 39 37 35 34
8 6 3 4 6 7 4 7 11 5 1 12 22 24 21 17 17 19 19 18 15 11 10 10 10 11 11 11 10 10 9 10 11 11 12 12 11 11 11 10 10 9 8 7 7 6 5 5 5 6 6 7 7 6 6 7 8 9 9 9 9 10 11 13 14 16 18 19 21 22 25 28 32 36 40 42 43 44 43 42 41 40 39 37 35 34
7 8 8 7 8 9 7 17 24 15 7 15 27 29 25 20 17 16 16 16 15 13 11 11 11 11 11 10 9 8 8 9 10 10 10 10 10 9 8 8 8 8 7 7 7 6 6 7 7 7 8 8 8 7 7 8 9 9 10 9 10 10 11 12 14 16 18 19 20 21 23 26 30 34 38 41 43 43 43 43 42 41 39 38 36 35
Wind_Direction
154 153 184 183 167 173 178 175 159 110 70 310 266 282 278 264 276 262 259 290 223 179 227 219 222 242 251 259 261 255 232 225 230 233 234 233 230 228 226 228 230 231 234 235 234 234 235 234 234 234 234 234 234 233 233 234 234 234 233 233 231 227 225 223 222 223 224 227 229 231 233 235 240 245 246 245 245 247 251 253 259 266 270 269 270 276
173 190 183 172 169 163 155 144 149 155 149 304 287 285 281 250 265 269 266 316 348 182 251 241 235 253 254 260 263 231 211 226 229 230 234 233 231 232 231 231 233 234 236 236 235 235 235 236 234 234 234 233 233 232 231 232 231 232 232 231 230 227 225 223 224 226 228 230 232 234 237 240 245 250 253 254 252 250 251 253 257 261 268 271 272 270
185 205 166 153 138 128 134 140 151 169 181 267 276 283 282 259 273 272 255 326 7 181 272 326 247 257 258 258 249 215 220 241 242 237 238 235 231 233 233 233 234 236 238 237 236 236 235 236 235 234 234 233 233 232 231 231 230 230 230 229 229 227 225 224 227 230 232 236 239 244 247 247 251 255 259 261 256 251 251 253 256 257 257 260 262 259
183 211 155 139 130 129 142 151 150 155 173 227 249 262 267 260 281 281 278 319 14 92 248 34 268 267 265 269 259 232 231 244 251 249 247 241 235 237 236 236 238 238 240 240 239 238 236 236 234 233 234 233 233 233 231 230 229 229 228 227 227 226 225 225 227 231 234 239 243 247 250 251 253 255 258 260 255 249 246 247 252 255 251 249 251 253
174 215 154 140 145 150 149 160 161 165 195 219 223 232 249 253 240 247 305 311 334 9 102 84 316 284 255 259 267 244 233 242 249 246 246 243 240 242 243 243 243 243 245 245 244 243 241 239 236 234 234 234 234 233 232 230 228 228 227 227 227 227 226 226 227 231 234 238 240 241 244 246 247 247 249 252 252 250 245 242 246 252 256 261 261 258
198 206 161 143 158 160 154 173 175 171 194 227 224 221 232 248 250 253 315 321 303 281 261 113 265 274 284 259 252 248 225 239 244 236 238 242 241 242 244 244 244 245 247 247 247 246 244 242 239 236 235 235 235 234 233 232 231 230 230 229 229 229 228 227 228 231 234 237 238 239 241 241 242 243 243 245 250 254 253 252 252 251 251 256 261 259
171 191 169 154 160 161 163 182 180 169 177 238 229 204 216 236 244 244 291 266 221 254 277 136 203 259 305 267 243 254 258 248 248 245 241 242 241 240 243 245 243 243 244 245 247 247 245 242 238 236 234 233 234 234 234 234 233 233 232 232 232 231 230 229 230 232 235 238 239 240 242 244 246 247 248 251 256 259 258 259 260 254 242 236 239 240
143 171 178 160 153 158 179 184 177 165 159 231 242 173 199 226 232 221 192 205 236 281 298 301 169 244 273 251 250 330 282 268 264 260 252 244 240 239 242 244 243 241 241 243 246 248 246 241 236 235 234 233 234 234 234 234 234 234 233 233 233 233 232 232 232 234 237 239 241 242 244 247 249 251 254 259 262 260 255 254 256 253 247 241 238 236
132 168 176 158 156 178 188 168 160 162 169 230 211 104 168 200 226 211 185 220 274 340 273 256 153 218 261 266 311 22 245 262 258 249 248 243 238 237 239 242 243 243 242 243 245 247 246 242 238 236 235 235 235 233 233 234 234 235 235 234 233 233 233 233 234 236 238 240 242 244 246 248 250 252 254 256 257 254 248 249 252 250 247 246 247 249
190 187 176 160 168 189 162 141 158 169 181 189 133 87 69 63 54 75 163 199 12 282 245 229 185 213 263 266 282 312 236 244 253 251 245 242 239 237 239 241 243 244 244 244 244 244 243 243 240 237 236 235 235 233 233 233 234 234 234 234 234 233 232 232 234 235 237 239 241 243 245 246 248 250 250 250 252 250 245 245 246 246 246 243 236 241
137 169 172 166 166 147 123 118 143 163 153 112 119 89 51 36 35 43 56 100 152 256 248 229 195 203 258 260 219 224 218 208 225 249 256 252 246 242 242 244 245 246 247 246 245 242 240 241 239 235 234 234 233 234 233 233 232 232 233 233 234 233 232 232 233 235 236 238 239 241 243 245 246 246 247 247 247 247 245 243 245 247 250 249 238 238
73 132 168 169 142 125 117 133 88 68 94 83 105 119 72 356 12 14 359 71 218 242 273 309 196 191 239 255 220 241 243 217 214 227 243 251 250 248 247 249 250 251 251 249 244 239 237 237 235 233 233 232 232 233 233 234 233 232 232 232 233 233 232 232 233 234 236 237 239 240 241 243 244 244 245 244 243 245 244 242 246 247 241 241 244 249
87 156 199 145 156 151 138 148 129 92 101 94 129 150 143 173 166 233 237 169 233 245 299 335 161 205 241 247 252 265 266 248 231 226 237 249 257 258 255 255 256 253 251 248 241 236 234 233 232 232 233 232 232 233 234 235 234 233 232 232 233 232 232 232 233 234 236 237 238 239 240 241 242 242 242 242 240 242 243 242 245 244 236 237 244 255
96 288 208 161 172 177 169 161 161 167 169 171 179 175 171 157 170 205 209 213 250 260 285 289 185 250 280 263 242 243 243 243 240 242 250 257 262 263 262 261 259 254 248 242 236 231 231 232 232 232 234 234 233 233 234 235 235 234 233 232 233 233 233 233 234 235 236 238 238 239 239 239 239 239 237 237 238 239 242 244 244 242 241 244 249 255
159 232 203 184 170 177 182 181 157 135 158 185 176 159 208 211 182 199 202 208 237 258 281 284 190 206 220 251 243 241 252 254 248 251 256 259 260 262 265 264 262 260 251 237 230 227 227 230 231 233 234 235 235 235 235 236 235 235 234 234 234 234 234 235 236 237 237 239 239 238 238 236 236 237 236 234 237 239 240 242 242 240 241 244 248 248
172 236 226 173 152 165 175 171 142 124 147 189 150 147 228 220 148 163 194 184 186 221 271 249 223 214 212 267 278 273 273 266 251 252 256 258 260 262 263 262 260 263 257 239 228 225 226 227 229 232 234 236 237 236 236 236 236 236 235 235 236 236 236 237 238 239 240 240 240 238 237 236 234 234 234 232 235 238 239 241 243 241 240 241 244 239
170 246 315 99 139 171 173 161 163 167 157 152 169 189 218 170 114 59 254 93 82 213 251 200 237 288 310 282 298 331 303 279 260 256 252 253 257 259 259 258 255 258 259 245 232 226 226 227 228 231 232 234 236 236 237 237 237 237 237 237 238 238 238 239 240 241 242 242 241 239 237 235 234 232 232 233 234 234 233 237 239 237 238 241 241 226
155 102 252 153 148 185 175 166 182 213 145 139 194 192 135 94 121 155 245 328 71 228 271 190 222 274 277 265 306 339 283 272 263 253 251 255 255 251 253 253 249 252 258 251 236 227 226 226 228 230 230 232 234 235 236 237 238 238 238 239 239 240 241 242 243 244 244 244 242 240 236 234 234 232 231 233 234 230 228 231 232 232 237 242 231 211
145 96 307 196 154 154 158 164 190 234 164 144 173 159 126 192 216 189 193 221 202 227 280 303 259 251 212 231 284 243 234 246 254 248 247 252 246 243 249 251 248 247 253 252 235 225 224 224 226 228 230 233 235 238 240 240 241 240 240 241 241 242 243 243 245 245 244 244 241 238 235 232 231 230 230 231 232 230 227 228 231 232 236 234 215 200
144 112 281 243 156 143 131 175 193 205 166 77 106 163 161 194 209 201 185 184 198 223 262 289 305 264 223 218 211 227 235 233 246 252 244 247 249 248 252 255 253 244 242 244 232 222 222 222 225 228 231 236 239 242 243 242 243 242 242 243 242 242 243 242 242 241 240 239 237 233 230 227 226 226 227 227 229 231 227 228 231 232 229 218 203 194
145 119 146 151 143 143 161 207 192 181 176 156 175 195 192 192 209 224 207 169 160 193 218 242 273 265 247 214 198 223 240 230 236 250 252 260 265 265 262 261 259 248 238 236 230 224 222 223 227 231 236 241 242 242 242 240 240 240 241 241 240 240 239 238 237 235 235 233 230 227 223 222 222 223 224 222 224 228 227 227 229 225 216 205 197 194
155 128 138 143 171 165 176 241 176 170 182 183 196 200 189 193 187 213 230 213 123 192 192 186 259 268 254 211 202 217 227 227 242 261 263 273 280 283 279 270 264 255 243 237 232 228 226 227 232 238 242 243 241 240 241 241 239 238 238 237 236 235 233 233 232 229 227 224 221 221 218 218 219 220 220 219 220 224 225 227 226 216 206 198 194 194
107 105 118 131 184 183 160 4 69 146 152 147 201 205 174 183 185 210 232 216 121 253 139 133 260 269 256 219 213 233 248 269 287 280 274 282 290 293 291 280 265 255 246 239 235 231 230 233 237 241 242 240 240 240 241 241 240 238 237 235 232 230 227 226 225 223 220 216 214 215 214 215 216 216 218 219 221 223 224 224 217 206 199 196 195 194
129 113 101 100 98 353 357 3 18 38 104 151 216 184 162 196 186 201 225 179 190 222 152 200 257 266 269 244 230 258 275 278 273 270 271 278 284 285 285 283 271 256 246 238 233 230 230 234 238 240 240 238 238 239 239 240 239 236 235 232 229 225 221 219 218 217 217 213 212 214 212 212 215 217 220 221 222 222 219 214 205 198 195 195 196 195
159 140 120 123 112 39 359 319 280 230 183 188 199 145 158 166 112 116 207 136 228 226 182 209 245 253 275 305 289 273 283 279 270 266 264 270 281 283 278 276 269 257 248 240 233 230 231 235 241 242 241 238 237 238 239 239 237 234 231 228 225 221 217 214 212 213 215 215 215 217 215 215 218 220 221 221 219 216 210 202 197 195 195 195 196 196
152 156 148 145 153 174 189 207 207 192 174 159 138 131 161 168 156 169 177 181 235 233 178 209 242 261 287 307 306 294 301 292 287 290 273 271 284 288 280 272 266 257 248 241 235 234 237 241 245 246 242 239 236 235 234 233 232 230 227 224 223 220 216 212 211 212 215 217 217 218 219 220 221 221 220 217 211 205 200 196 195 196 195 195 196 197
121 161 182 181 184 186 188 190 149 132 152 190 181 160 162 178 174 150 141 216 220 172 206 231 226 254 279 277 281 286 285 277 284 299 304 301 301 297 290 280 270 259 249 241 235 235 239 242 246 246 244 240 235 231 228 226 226 226 226 225 224 222 218 215 213 214 216 217 217 218 219 219 218 217 214 208 202 198 196 195 196 196 196 195 196 198
95 186 198 203 206 192 158 149 137 145 176 191 178 169 171 170 162 164 212 224 169 141 251 240 178 209 255 261 265 271 267 260 273 289 304 313 311 299 292 286 280 271 258 244 235 233 236 240 242 242 240 237 232 227 223 222 222 224 225 226 226 224 220 215 213 213 214 215 215 215 214 213 212 209 204 200 197 196 196 196 196 196 197 196 196 199
150 203 199 198 203 195 136 146 150 160 181 180 175 184 182 173 175 195 224 223 167 212 250 229 169 216 235 243 254 252 237 244 272 290 305 307 304 301 294 284 277 267 258 249 242 238 238 240 239 238 239 237 231 225 221 220 221 222 222 223 223 223 219 214 211 211 211 211 210 209 207 205 203 201 199 198 197 197 197 197 197 198 198 198 198 200
178 198 188 175 183 195 169 165 156 154 163 172 186 192 186 188 199 212 229 229 203 237 258 258 236 244 225 223 256 272 289 286 285 296 299 298 299 298 283 275 269 259 255 255 253 250 248 247 243 240 238 236 231 225 221 219 220 221 222 223 222 220 217 213 210 207 206 206 204 203 201 201 200 200 199 199 199 199 198 199 200 200 200 200 202 203
185 189 150 134 156 212 243 176 152 146 157 173 194 199 196 201 209 218 230 231 226 247 256 264 267 264 234 224 265 282 289 288 287 287 286 286 297 303 291 283 279 269 263 262 261 258 256 253 249 244 239 235 232 228 225 223 222 222 224 224 223 219 214 210 206 203 202 201 201 201 201 202 202 202 201 201 200 201 201 201 201 201 202 202 204 205
112 161 106 116 156 245 306 141 128 98 108 175 217 211 203 204 212 221 225 218 225 242 249 255 264 261 171 211 260 267 269 269 271 271 271 272 279 287 283 277 274 273 270 267 264 263 261 258 254 252 248 242 237 232 229 226 224 225 226 225 223 217 212 207 204 202 202 202 203 205 205 205 205 204 203 202 202 202 203 203 203 203 204 205 206 208
120 123 120 136 162 245 294 139 127 87 71 258 239 210 198 204 211 220 226 220 221 230 234 242 249 215 141 209 246 256 253 245 250 254 255 259 263 266 268 268 269 272 272 270 267 266 267 266 264 265 264 258 251 243 238 232 229 229 229 227 223 217 212 209 206 206 207 207 209 209 209 209 207 206 205 204 204 204 204 204 204 205 206 207 208 210
136 131 152 161 158 210 217 136 115 123 203 238 220 175 180 198 205 214 225 222 219 223 228 239 246 220 189 222 240 251 250 245 248 251 252 256 259 262 266 267 268 271 273 276 276 272 273 274 272 270 269 268 265 256 246 240 235 233 231 229 225 220 217 213 211 212 213 213 213 213 212 211 209 208 208 207 206 206 206 206 206 207 208 209 210 212
150 145 160 163 137 171 177 128 139 202 226 232 158 151 178 196 204 213 223 223 220 223 230 239 244 229 214 225 234 243 252 254 254 253 252 253 255 259 265 265 264 267 272 276 276 275 277 279 279 277 274 274 272 264 254 246 239 236 234 232 228 224 221 219 218 218 218 218 218 216 214 213 211 210 209 209 209 208 207 207 207 208 209 210 212 213
166 161 154 143 131 129 146 163 187 225 256 266 95 184 190 188 195 209 227 236 228 223 228 234 237 233 224 232 239 244 257 264 259 251 246 245 249 252 255 258 259 262 267 270 272 276 282 285 283 280 277 274 270 266 263 256 247 241 237 234 232 228 224 223 223 223 222 222 221 219 217 215 213 212 211 211 211 210 209 209 209 210 211 211 212 212
169 161 148 162 172 132 153 194 228 319 314 258 232 231 183 161 165 182 217 245 232 221 226 228 234 239 232 238 244 245 251 270 272 257 244 235 238 246 251 257 261 262 263 266 269 275 280 282 280 278 275 272 268 265 264 261 254 248 242 238 237 234 229 227 226 226 226 225 224 222 219 218 216 215 214 214 214 213 211 210 210 211 213 213 213 212
172 168 163 175 195 95 125 188 266 271 263 243 201 174 170 170 167 161 197 246 231 217 220 217 224 232 226 234 239 229 224 258 277 262 251 242 240 247 252 257 261 264 265 266 268 270 272 275 276 276 274 270 269 265 260 259 257 253 248 244 240 238 236 232 230 229 229 228 227 225 222 221 220 218 217 217 216 215 213 212 212 213 214 215 215 215
119 132 151 160 162 140 155 184 202 217 246 224 158 161 173 168 151 124 191 255 225 205 213 210 215 227 223 225 221 196 187 233 244 254 255 252 249 251 254 258 261 265 266 266 267 265 265 268 270 272 275 273 273 270 259 255 255 253 252 249 244 242 241 239 237 235 233 232 230 227 226 224 222 221 220 219 219 217 216 215 214 215 215 215 215 215
151 156 162 170 184 182 181 200 214 232 249 210 179 179 166 156 137 112 248 257 204 196 206 200 203 220 222 219 206 175 188 220 230 252 256 257 258 256 255 256 256 258 258 258 259 258 257 260 263 268 276 277 274 267 256 251 250 250 252 252 248 247 247 246 245 242 238 236 232 229 228 226 224 223 221 221 220 218 217 217 217 217 216 215 214 215
150 181 184 183 189 179 182 212 248 271 244 228 211 172 153 141 133 167 220 224 179 192 204 199 206 221 221 208 192 193 219 225 229 249 258 259 260 250 238 245 252 257 260 257 257 257 256 258 262 267 274 276 270 261 253 248 247 248 249 250 250 251 252 251 248 244 241 237 234 231 230 227 226 224 222 221 220 219 218 218 219 219 219 218 217 217
159 178 191 180 177 165 182 211 262 279 233 180 153 165 156 143 171 215 199 162 160 179 195 203 215 224 219 207 206 218 233 235 234 243 249 250 251 246 246 256 256 258 264 264 264 262 258 258 261 263 266 267 261 252 245 243 244 245 246 248 251 253 253 250 248 245 243 239 236 233 230 228 226 224 222 221 220 219 219 219 219 220 220 220 220 220
173 171 188 194 173 144 166 182 208 270 219 142 129 152 193 183 196 172 139 126 160 163 173 199 215 218 212 214 220 230 241 246 243 245 247 249 255 261 262 259 251 250 258 266 270 267 257 251 251 250 248 246 242 238 239 243 249 250 251 255 257 256 253 252 250 248 246 242 239 236 232 230 227 225 223 222 220 220 221 221 221 221 221 221 222 221
194 181 187 204 187 167 182 193 205 257 168 149 146 173 207 197 145 124 143 157 157 155 160 170 180 189 193 201 215 223 234 244 246 249 253 255 259 260 252 246 244 247 256 266 266 264 252 235 226 217 221 223 220 226 234 244 254 259 262 265 262 258 256 255 253 251 249 246 243 239 236 232 229 227 225 223 221 221 221 222 222 222 222 222 223 223
214 194 173 182 197 190 193 203 214 191 162 166 168 184 194 196 189 127 154 166 154 160 163 156 161 169 170 177 195 202 210 224 232 239 248 254 256 245 227 226 232 241 254 263 260 250 229 212 195 180 180 180 184 212 234 250 263 269 272 271 264 261 260 258 256 255 252 250 247 243 239 235 231 228 225 223 223 222 222 223 223 223 224 224 224 224
256 189 144 132 199 236 259 192 162 162 177 179 179 172 189 199 205 179 161 166 167 172 174 169 174 178 174 181 196 201 203 209 217 229 240 247 247 234 221 221 226 238 249 251 241 221 199 183 172 162 151 145 236 289 295 290 288 287 283 277 271 267 264 261 259 258 255 253 250 245 241 237 232 229 226 224 223 224 224 226 226 226 227 227 226 226
277 194 149 124 168 203 229 188 151 176 196 193 191 191 192 200 207 205 190 178 179 185 193 197 205 211 203 197 200 208 216 217 221 232 236 237 236 228 220 224 231 237 238 231 216 202 189 177 169 169 190 284 283 289 290 287 289 289 282 278 274 269 265 263 261 260 258 256 253 248 244 239 235 231 227 225 224 224 224 226 227 228 229 228 228 227
201 170 166 177 174 177 204 197 170 183 201 201 204 210 205 204 208 211 213 214 208 200 200 204 213 222 225 225 217 214 216 219 225 233 231 226 226 222 221 226 231 230 225 216 207 199 195 192 198 242 274 280 279 284 284 282 283 280 275 271 269 266 266 265 264 264 263 260 257 253 248 243 238 233 230 227 226 225 226 226 227 228 229 230 231 230
137 157 177 170 172 203 267 220 169 94 208 217 216 212 210 212 210 209 214 219 218 214 208 207 213 218 222 228 226 221 219 219 222 226 223 219 218 218 219 222 221 219 216 211 206 208 212 230 261 268 270 272 271 273 274 273 275 275 272 269 265 262 263 264 264 265 263 261 258 255 250 246 241 236 232 229 228 227 228 228 229 230 230 231 231 232
135 164 170 117 175 227 240 168 164 146 185 216 211 207 207 211 211 209 211 213 214 218 219 215 212 212 215 219 222 222 220 216 213 214 214 213 213 214 215 215 213 213 213 212 218 230 242 260 272 273 274 276 274 276 282 287 290 291 286 279 271 266 264 263 262 263 262 261 260 256 252 248 243 238 234 231 229 229 229 229 229 230 230 230 231 231
176 179 170 162 201 223 185 167 179 187 197 200 200 202 206 210 211 208 208 209 210 213 216 216 214 211 210 211 212 213 211 204 200 200 201 202 205 208 209 209 210 213 218 224 232 244 253 260 265 267 270 274 278 286 293 295 295 291 283 276 271 267 265 263 262 263 264 264 263 261 256 251 246 241 236 232 230 230 230 230 230 229 228 229 229 230